Location: ???????
(60.4260°N, 46.9069°E)
Time: 18:47:23
(UTC+00:00)

SeaSat 1 - Pass Details

Date: 30 March 2020
Orbit: 745 x 746 km, 108.0° (Epoch: 05 June)

Event Time Altitude Azimuth Distance (km) Brightness Sun altitude
Rises 00:09:10 0° 153° (SSE) 3,182 5.6 -15.7°
Reaches altitude 10° 00:11:27 10° 157° (SSE) 2,261 4.8 -15.5°
Maximum altitude 00:16:19 60° 237° (WSW) 858 2.4 -15.0°
Drops below altitude 10° 00:21:13 10° 318° (NW) 2,275 4.9 -14.5°
Sets 00:23:32 0° 322° (NW) 3,203 5.7 -14.3°
